Monroe, NC

6:43 PM EDT on August 21, 2017 (GMT -0400)
Monroe

Weather History for KEQY - March, 2013

Change the Weather History Date:

Friday, March 29, 2013

  Actual Average (KCLT) Record (KCLT)
Temperature  
Mean Temperature 46 °F -  
Max Temperature 63 °F 66 °F 89 °F (1907)
Min Temperature 30 °F 46 °F 26 °F (2013)
Degree Days  
Heating Degree Days 19    
Moisture  
Dew Point 25 °F    
Average Humidity 44    
Maximum Humidity 79    
Minimum Humidity 22    
Precipitation  
Precipitation 0.00 in - - ()
Sea Level Pressure  
Sea Level Pressure 30.31 in    
Wind  
Wind Speed 3 mph (WSW)    
Max Wind Speed 12 mph    
Max Gust Speed 17 mph    
Visibility 10 miles    
Events      
Averages and records for this station are not official NWS values.
T = Trace of Precipitation, MM = Missing Value Source: NWS Daily Summary

Daily Weather History Graph

Daily Weather History Graph

Search for Another Location

Airport or City:

Trip Planner

Search our weather history database for the weather conditions in past years. The results will help you decide how hot, cold, wet, or windy it might be!

Date:

Astronomy

Mar. 29, 2013 Rise Set
Actual Time 7:13 AM EDT 7:41 PM EDT
Civil Twilight 6:47 AM EDT 8:07 PM EDT
Nautical Twilight 6:17 AM EDT 8:36 PM EDT
Astronomical Twilight 5:47 AM EDT 9:07 PM EDT
Moon 10:32 PM EDT (3/29) 8:27 AM EDT (3/29)
Length of Visible Light 13h 19m
Length of Day
12h 28m
Waning Gibbous, 93% of the Moon is Illuminated
Mar 29
Waning Gibbous
Apr 3
Last Quarter
Apr 10
New
Apr 18
First Quarter
Apr 25
Full

Hourly Weather History & Observations

Time (EDT) Temp. Windchill Dew Point Humidity Pressure Visibility Wind Dir Wind Speed Gust Speed Precip Events Conditions
12:53 AM 42.1 °F 39.2 °F 21.9 °F 45% 30.34 in 10.0 mi North 4.6 mph - N/A   Clear
1:53 AM 37.0 °F - 21.9 °F 54% 30.34 in 10.0 mi Calm Calm - N/A   Clear
2:53 AM 35.1 °F - 25.0 °F 67% 30.35 in 10.0 mi Calm Calm - N/A   Clear
3:53 AM 34.0 °F - 24.1 °F 67% 30.34 in 10.0 mi Calm Calm - N/A   Clear
4:53 AM 30.9 °F - 24.1 °F 76% 30.35 in 10.0 mi Calm Calm - N/A   Clear
5:53 AM 30.9 °F - 24.1 °F 76% 30.35 in 10.0 mi Calm Calm - N/A   Clear
6:53 AM 30.0 °F - 24.1 °F 79% 30.37 in 10.0 mi Calm Calm - N/A   Clear
7:53 AM 30.9 °F - 25.0 °F 79% 30.39 in 10.0 mi Calm Calm - N/A   Clear
8:53 AM 43.0 °F - 26.1 °F 51% 30.39 in 10.0 mi Calm Calm - N/A   Clear
9:53 AM 48.9 °F - 26.1 °F 41% 30.38 in 10.0 mi Calm Calm - N/A   Clear
10:53 AM 50.0 °F - 23.0 °F 35% 30.38 in 10.0 mi Calm Calm - N/A   Clear
11:53 AM 55.0 °F - 25.0 °F 31% 30.37 in 10.0 mi Calm Calm - N/A   Clear
12:53 PM 55.9 °F - 24.1 °F 29% 30.34 in 10.0 mi SSW 5.8 mph - N/A   Clear
1:53 PM 59.0 °F - 21.9 °F 24% 30.31 in 10.0 mi WSW 11.5 mph 17.3 mph N/A   Clear
2:53 PM 60.1 °F - 23.0 °F 24% 30.28 in 10.0 mi Variable 4.6 mph - N/A   Clear
3:53 PM 62.1 °F - 23.0 °F 22% 30.25 in 10.0 mi West 10.4 mph - N/A   Clear
4:53 PM 60.1 °F - 21.0 °F 22% 30.25 in 10.0 mi Calm Calm - N/A   Overcast
5:53 PM 60.1 °F - 23.0 °F 24% 30.24 in 10.0 mi West 6.9 mph - N/A   Mostly Cloudy
6:53 PM 59.0 °F - 25.0 °F 27% 30.24 in 10.0 mi SW 11.5 mph - N/A   Clear
7:53 PM 57.0 °F - 27.0 °F 32% 30.25 in 10.0 mi WSW 6.9 mph - N/A   Mostly Cloudy
8:53 PM 55.9 °F - 28.0 °F 34% 30.24 in 10.0 mi WSW 8.1 mph - N/A   Overcast
9:53 PM 55.9 °F - 28.9 °F 36% 30.25 in 10.0 mi WSW 6.9 mph - N/A   Overcast
10:53 PM 55.9 °F - 30.9 °F 39% 30.26 in 10.0 mi West 6.9 mph - N/A   Overcast
11:53 PM 55.0 °F - 33.1 °F 43% 30.25 in 10.0 mi WNW 3.5 mph - 0.00 in   Overcast